Regional Weather Roundup
Issued by NWS Grand Forks, ND

Home | Current Version | Previous Version | Graphics & Text | Print | Product List | Glossary On
Versions: 1 2 3 4 5 6 7 8 9 10 11 12 13 14 15 16 17 18 19 20 21 22 23 24 25 26 27 28 29 30 31 32 33 34 35 36 37 38 39 40 41 42 43 44 45 46 47 48 49 50
000
ASUS43 KFGF 292010
RWRFGF
PRAIRIE TO PINES  WEATHER ROUNDUP
NATIONAL WEATHER SERVICE EASTERN NORTH DAKOTA/GRAND FORKS ND
300 PM CDT MON AUG 29 2016

 **SATELLITE DATA USED TO AUGMENT SKY COVER AT AUTOMATED STATIONS**
 *****  WEATHER ACROSS EASTERN NORTH DAKOTA  *****

CITY           SKY/WX    TMP DP  RH WIND       PRES   REMARKS
GRAND FORKS    MOSUNNY   80  61  52 NW9       30.15S
GRAND FRKS AFB SUNNY     80  59  48 NW10G18   30.17S
GRAND FRKS NWS   N/A     81 N/A N/A NW10        N/A
DEVILS LAKE    SUNNY     72  50  45 NW12      30.23F
FARGO          PTSUNNY   81  68  64 N9        30.15S
WAHPETON ARPT  MOCLDY    82  64  54 CALM      30.14F
$$

 ***** WEATHER ACROSS CENTRAL AND WESTERN NORTH DAKOTA  *****

CITY           SKY/WX    TMP DP  RH WIND       PRES   REMARKS
BISMARCK       SUNNY     79  52  38 VRB6      30.25F
MINOT          SUNNY     73  44  35 CALM      30.26F
JAMESTOWN      SUNNY     77  59  53 NW13      30.21F
MINOT AFB      SUNNY     73  44  34 N7        30.25F
GARRISON         N/A     78  47  33 NE7       30.27S
WILLISTON      SUNNY     78  39  24 N5        30.28F
DICKINSON      SUNNY     79  43  27 E12       30.27F
HETTINGER      SUNNY     80  49  33 E10       30.29F
$$

 *****  OTHER AIRPORT OBSERVATIONS IN OUR AREA  *****

CITY           SKY/WX    TMP DP  RH WIND       PRES   REMARKS
WALHALLA       NOT AVBL
GRAFTON AIRPOR FAIR      79  59  50 W13       30.18S
VALLEY CITY AR FAIR      77  63  61 N14       30.21F
CANDO          NOT AVBL
CAVALIER APRT  FAIR      75  55  50 NW12G17   30.18S
GWINNER        MOCLDY    82  72  69 N10       30.16F
SHEYENNE NWR     N/A     82  71  68 NE7       29.95S
ROLLA          FAIR      68  48  49 NW10      30.26F
 ***** THE ABOVE OBSERVATIONS ARE NON NWS ARE NOT QUALITY
       CONTROLLED AND MAY MIS-REPORT RAIN FOR SNOW...
$$

  *****  WEATHER ACROSS NORTHERN MINNESOTA  *****

CITY           SKY/WX    TMP DP  RH WIND       PRES   REMARKS
FLAG ISLAND    MOSUNNY   73  64  73 CALM      30.10S
WARROAD        NOT AVBL
ROSEAU         SUNNY     79  64  61 NW12      30.13S
HALLOCK        SUNNY     75  55  50 W12G20    30.16S
THF RVR FALLS  SUNNY     77  64  64 NW13G20   30.17R
BAUDETTE       SUNNY     75  67  76 NW10      30.12S
WASKISH          N/A     77  70  78 SW10      30.13F
CROOKSTON      SUNNY     79  64  61 NW15      30.16S
STEPHEN NDAWN    N/A     75  61  60 NW12        N/A
GREENBUSH NDAW   N/A     79  57  47 NW12        N/A
$$
  *****  WEATHER ACROSS CENTRAL AND WEST MINNESOTA  *****

CITY           SKY/WX    TMP DP  RH WIND       PRES   REMARKS
FOSSTON        PTSUNNY   75  64  69 NW9       30.17F
BEMIDJI        CLOUDY    76  69  76 W15       30.15F
PARK RAPIDS    PTSUNNY   82  70  66 W12       30.15S
ELBOW LAKE     MOCLDY    83  71  66 SW8       30.15F HAZE
WADENA         MOSUNNY   81  66  61 SW12G17   30.16S
DETROIT LAKES  PTSUNNY   79  70  73 NW7       30.18S
MOORHEAD       PTSUNNY   79  68  69 N8        30.16R
FERGUS FALLS   CLOUDY    81  70  69 NW9       30.15F
MORRIS MN      SUNNY     88  70  55 S7        30.13S HX  92
STAPLES        MOSUNNY   82  66  57 W10       30.16S
$$
  *****  WEATHER ELSEWHERE ACROSS MINNESOTA  *****

CITY           SKY/WX    TMP DP  RH WIND       PRES   REMARKS
DULUTH         MOSUNNY   80  65  59 SW13      30.14S
INTRNTL FALLS  PTSUNNY   77  66  68 W8        30.10S
ELY            SUNNY     79  64  61 W8        30.11F
CLOQUET        SUNNY     81  63  54 SW14      30.15S
WHEATON        MOSUNNY   84  73  70 W5        30.15S HX  91
BRAINERD       SUNNY     81  67  62 W9        30.15F
HIBBING        CLOUDY    76  68  76 W6        30.13S
ALEXANDRIA     MOSUNNY   84  72  67 SW13      30.17S
SAINT CLOUD    SUNNY     85  73  67 S15       30.14S HX  91
MINNEAPOLIS    CLOUDY    83  70  64 SW8G20    30.15S
$$

  *****  WEATHER ACROSS SOUTH DAKOTA  *****

CITY           SKY/WX    TMP DP  RH WIND       PRES   REMARKS
SIOUX FALLS    CLOUDY    84  71  65 S10       30.16F
BROOKINGS      MOSUNNY   82  72  71 S13       30.16F
WATERTOWN      SUNNY     88  69  53 SW14      30.15S HX  92
HURON          SUNNY     89  66  46 S14G21    30.11F HX  91
SISSETON         N/A     85  72  65 E5        30.13S HX  91
ABERDEEN       SUNNY     83  69  62 VRB7      30.15F
MITCHELL       PTSUNNY   88  69  53 S12       30.14S HX  92
PIERRE         SUNNY     89  64  43 NE10      30.13S HX  90
MOBRIDGE       SUNNY     86  55  34 N14G23    30.17S
RAPID CITY     SUNNY     82  56  40 NE10      30.26F
$$

  *****  SOME WEATHER IN NEARBY STATES *****

CITY           SKY/WX    TMP DP  RH WIND       PRES   REMARKS
GLASGOW MT     SUNNY     75  46  35 SE10      30.24F
GREAT FALLS MT CLOUDY    82  46  28 NE10      30.18F
CHEYENNE WY    CLOUDY    79  38  22 VRB5      30.35F
SCOTTSBLUFF NE SUNNY     87  54  32 E10       30.24S
OMAHA NE       PTSUNNY   86  71  60 CALM      30.14F HX  91
DES MOINES IA  PTSUNNY   84  73  69 SE9       30.16F THUNDER HX  90
DAVENPORT IA   CLOUDY    75  69  81 S14       30.20S THUNDER
CHICAGO IL     TSTM      77  70  79 W10       30.22R VSB 1
EAU CLAIRE WI  CLOUDY    83  70  64 S10       30.16F
LA CROSSE WI   CLOUDY    83  69  62 S12       30.16F
$$

  *****  SOME NATIONAL WEATHER *****

CITY           SKY/WX    TMP DP  RH WIND       PRES   REMARKS
LA GUARDIA NY  MOSUNNY   90  58  33 NW14      30.05F
RALEIGH NC     MOSUNNY   89  62  40 NE9       30.09F
ATLANTA GA     MOSUNNY   89  68  49 NE9G20    30.09F HX  93
NEW ORLEANS LA CLOUDY    91  74  57 E10       29.95F THUNDER HX 100
OKLAHOMA CITY  PTSUNNY   92  64  39 E7        30.10F HX  93
ALBUQUERQUE NM LGT RAIN  75  47  36 E12       30.25F
SALT LAKE CITY MOSUNNY   92  34  13 NW8       30.17F
LOS ANGELES CA MOSUNNY   76  63  64 W12       29.94F
BOISE ID       CLOUDY    86  45  23 NW7       30.08F
SEATTLE WA     MOSUNNY   71  53  52 VRB5      30.03F
$$

*** WEATHER ACROSS MANITOBA...SASKATCHEWAN AND ONTARIO ***
                ***ONTARIO***

CITY           SKY/WX    TMP DP  RH WIND       PRES   REMARKS
GERALDTON      CLOUDY    63  61  94 S7        30.12F
THUNDER BAY    PTSUNNY   77  68  73 S7        30.08S
SIOUX LOOKOUT  PTSUNNY   70  64  83 W7        30.08F
TORONTO        MOSUNNY   79  61  53 SE9       30.22F
BIG TROUT LK   LGT RAIN  70  66  88 NW6       29.91S
PICKLE LAKE    PTSUNNY   77  59  53 W10G17    30.00F
DRYDEN         SUNNY     73  63  68 W12       30.09F
KENORA         PTSUNNY   70  61  73 NW13G18   30.12S
$$
                *** MANITOBA***

CITY           SKY/WX    TMP DP  RH WIND       PRES   REMARKS
BRANDON        MOSUNNY   70  46  43 W13G21    30.22F
DAUPHIN        SUNNY     68  45  42 W16G25    30.18F
ISLAND LAKE    PTSUNNY   61  52  72 W14       30.01S
PILOT MOUND      N/A     68  50  52 NW12G21     N/A
THE PAS        MOSUNNY   64  45  48 W23       30.07F
THOMPSON       CLOUDY    59  48  67 W15       29.93R
WINNIPEG       MOSUNNY   70  52  52 NW15G24   30.17F
LYNN LAKE      CLOUDY    55  52  88 MISG      29.95R
CHURCHILL      LGT RAIN  52  52 100 E12G20    29.81S FOG
GILLAM         CLOUDY    61  50  67 SW10G17   29.88S
$$
                ***SASKATCHEWAN***

CITY           SKY/WX    TMP DP  RH WIND       PRES   REMARKS
ESTEVAN        MOSUNNY   72  41  33 SW3       30.27F
KINDERSLEY     PTSUNNY   66  43  42 SE6       30.23F
LLOYDMINSTER   PTSUNNY   61  43  51 E7        30.25F
PRINCE ALBERT  MOSUNNY   64  43  45 W14       30.23F
REGINA         MOSUNNY   66  43  42 N7        30.27F
YORKTON        SUNNY     64  46  52 W14G21    30.23S
N. BATTLEFORD  SUNNY     63  37  39 SW8       30.27F
LA RONGE       MOSUNNY   61  39  44 NW18G28   30.16R
SASKATOON      MOSUNNY   64  37  36 NW3       30.27F
SWIFT CURRENT  SUNNY     68  46  45 SE12G17   30.24F
$$
NOTE: THESE ARE AUTOMATED STATIONS WITH LIMITED QUALITY CONTROL
      "FAIR" INDICATES FEW OR NO CLOUDS BELOW 12,000 FEET WITH NO
      SIGNIFICANT WEATHER AND/OR OBSTRUCTIONS TO VISIBILITY.
      SKY/WX - SKY CONDITION AND SIGNIFICANT WEATHER.
      TMP - AIR TEMPERATURE.    DP   - DEWPOINT TEMPERATURE.
      RH  - RELATIVE HUMIDITY.  PRES - PRESSURE.
      HX  - HEAT INDEX.         WCI  - WIND CHILL INDEX.
$




USA.gov is the U.S. government's official web portal to all federal, state and local government web resources and services.